Hourly Data Report for May 02, 2021

TOBERMORY RCS
ONTARIO
Current Station Operator: ECCC - MSC

45°14'00.000" N
81°38'00.000" W
213.50 m
6128330
71767
TTR

Download Data

Hourly Data (May 2021)
Hourly Data Report for May 2, 2021
TIME
LST
Temp Definition
°C
Dew Point Definition
°C
Rel Hum Definition
%
Precip. Amount Definition
mm

Wind Dir Definition
10's deg

Wind Spd Definition
km/h
Visibility Definition
km
Stn Press Definition
kPa
Hmdx Definition


Wind Chill Definition


Weather Definition


00:00 3.1 2.2 93 0.0 25 3   97.71     LegendNANA
01:00 3.3 2.5 95 0.0 14 2   97.69     LegendNANA
02:00 5.6 2.8 83 0.0 36 4   97.71     LegendNANA
03:00 5.6 1.6 75 0.0 36 4   97.81     LegendNANA
04:00 7.4 2.5 71 0.0 1 6   97.95     LegendNANA
05:00 5.8 1.7 75 0.0 6 4   97.96     LegendNANA
06:00 6.1 1.9 75 0.0 7 7   97.93     LegendNANA
07:00 8.1 2.7 69 0.0 9 7   97.96     LegendNANA
08:00 7.7 3.8 76 0.0 13 11   98.02     LegendNANA
09:00 8.3 5.0 80 0.0 16 6   98.05     LegendNANA
10:00 6.5 2.7 77 0.0 5 14   98.15     LegendNANA
11:00 6.6 2.7 76 0.0 6 13   98.18     LegendNANA
12:00 7.5 3.0 73 0.0 6 13   98.19     LegendNANA
13:00 7.4 3.1 74 0.0 6 11   98.18     LegendNANA
14:00 10.6 4.5 66 0.0 9 7   98.20     LegendNANA
15:00 11.0 4.2 63 0.0 9 9   98.20     LegendNANA
16:00 10.3 4.4 67 0.0 7 7   98.24     LegendNANA
17:00 9.3 5.3 76 0.0 5 6   98.28     LegendNANA
18:00 8.5 6.3 86 0.6 10 9   98.21     LegendNANA
19:00 8.5 6.9 90 0.9 12 15   98.19     LegendNANA
20:00 8.5 7.3 92 0.9 12 12   98.26     LegendNANA
21:00 8.8 8.2 96 1.2 13 18   98.24     LegendNANA
22:00 9.2 8.5 95 0.6 10 11   98.21     LegendNANA
23:00 9.8 8.6 92 1.1 10 12   98.27     LegendNANA

Notes on Data Quality.

Legend

  • E = Estimated
  • M = Missing
  • NA = Not Available*
  • [empty] = Indicates an unobserved value
Date modified: